Location: Lombard
(41.8800°N, 88.0080°W)
Time: 08:45:00
(UTC-06:00)

deb Explorer IX - All Passes

Search period start: 27 January 2023 00:00
Search period end: 06 February 2023 00:00
Orbit: 533 x 1050 km, 38.8° (Epoch: 24 January)

Date Brightness Start Highest point End Pass type
(mag) Time Alt. Az. Time Alt. Az. Time Alt. Az.
27 Jan - 06:11:04 10° SSW 06:14:23 25° SSE 06:17:47 10° E visible
27 Jan - 07:55:58 10° WSW 07:59:57 54° S 08:04:21 10° E daylight
27 Jan - 09:41:37 10° W 09:45:49 51° S 09:50:36 10° ESE daylight
27 Jan - 11:27:46 10° W 11:31:37 25° SSW 11:35:54 10° SSE daylight
28 Jan - 05:38:51 10° SSW 05:42:02 22° SSE 05:45:15 10° ESE visible
28 Jan - 07:23:40 10° WSW 07:27:36 51° S 07:31:49 10° E daylight
28 Jan - 09:09:19 10° W 09:13:25 52° S 09:18:01 10° ESE daylight
28 Jan - 10:55:25 10° W 10:59:11 26° SSW 11:03:23 10° SSE daylight
29 Jan - 05:06:38 10° SSW 05:09:41 21° SSE 05:12:43 10° ESE visible
29 Jan - 06:51:19 10° WSW 06:55:12 49° S 06:59:17 10° E daylight
29 Jan - 08:36:59 10° W 08:41:00 53° S 08:45:26 10° ESE daylight
29 Jan - 10:23:02 10° W 10:26:45 27° SSW 10:30:51 10° SE daylight
30 Jan - 04:34:22 10° SSW 04:37:18 19° SSE 04:40:10 10° ESE visible
30 Jan - 06:18:56 10° WSW 06:22:48 47° S 06:26:46 10° E visible
30 Jan - 08:04:37 10° W 08:08:35 53° S 08:12:52 10° ESE daylight
30 Jan - 09:50:38 10° W 09:54:18 28° SSW 09:58:20 10° SE daylight
31 Jan - 04:02:05 10° SSW 04:04:53 17° SSE 04:07:37 10° ESE visible
31 Jan - 05:46:31 10° WSW 05:50:23 44° SSE 05:54:16 10° E visible
31 Jan - 07:32:12 10° W 07:36:09 54° S 07:40:18 10° ESE daylight
31 Jan - 09:18:13 10° W 09:21:51 29° SSW 09:25:47 10° SE daylight
01 Feb - 03:29:45 10° SSW 03:32:27 16° SSE 03:35:02 10° ESE visible
01 Feb - 05:14:03 10° WSW 05:17:57 42° SSE 05:21:46 10° E visible
01 Feb - 06:59:45 10° W 07:03:41 55° S 07:07:45 10° ESE daylight
01 Feb - 08:45:46 10° W 08:49:23 30° SSW 08:53:15 10° SE daylight
02 Feb - 02:57:24 10° S 02:59:58 15° SSE 03:02:26 10° ESE visible
02 Feb - 04:41:31 10° SW 04:45:28 40° SSE 04:49:16 10° E visible
02 Feb - 06:27:15 10° W 06:31:13 55° S 06:35:12 10° ESE visible
02 Feb - 08:13:17 10° W 08:16:54 32° SSW 08:20:44 10° SE daylight
02 Feb - 10:01:56 10° SW 10:02:19 10° SSW 10:02:43 10° SSW daylight
03 Feb - 02:25:01 10° S 02:27:28 14° SSE 02:29:48 10° ESE night (unlit)
03 Feb - 04:08:57 10° SW 04:12:59 38° SSE 04:16:46 10° E visible
03 Feb - 05:54:42 10° W 05:58:43 56° S 06:02:40 10° ESE visible
03 Feb - 07:40:46 10° W 07:44:24 34° SSW 07:48:11 10° SE daylight
03 Feb - 09:28:40 10° SW 09:29:48 11° SSW 09:30:58 10° SSW daylight
04 Feb - 01:52:36 10° S 01:54:56 14° SSE 01:57:08 10° ESE night (unlit)
04 Feb - 03:36:21 10° SW 03:40:28 37° SSE 03:44:15 10° E visible
04 Feb - 05:22:06 10° WSW 05:26:12 56° S 05:30:08 10° ESE visible
04 Feb - 07:08:11 10° W 07:11:54 36° SSW 07:15:39 10° SE daylight
04 Feb - 08:55:43 10° SW 08:57:18 12° SSW 08:58:53 10° S daylight
05 Feb - 01:20:11 10° S 01:22:21 13° SSE 01:24:25 10° ESE night (unlit)
05 Feb - 03:03:40 10° SW 03:07:53 35° SSE 03:11:44 10° E visible
05 Feb - 04:49:27 10° WSW 04:53:38 56° S 04:57:36 10° E visible
05 Feb - 06:35:35 10° W 06:39:22 38° SSW 06:43:07 10° SE daylight
05 Feb - 08:22:51 10° WSW 08:24:46 13° SSW 08:26:41 10° S daylight
